Torna al catalogo

ORBASTRO-PC-1

AttivoScienzaSSO
NORAD 58258·PAYLOAD·🇬🇧 United Kingdom

Lanciato Nov 11, 2023 da Vandenberg Space Force Base

Loading…

Prossimi Passaggi (prossime 24 ore)

TLE

AggiornatoSource: Space-Track

Epoca: Sep 14, 2026, 12:00 UTC

1 58258U 23174C   26257.50020265  .00023156  00000-0  37440-3 0  9995
2 58258  97.3742 345.7246 0006177 182.6703 177.4518 15.52831847159317

Traccia ORBASTRO-PC-1 in tempo reale con AllMySat

Download on the App Store